TimeEDT,TemperatureF,Dew PointF,Humidity,Sea Level PressureIn,VisibilityMPH,Wind Direction,Wind SpeedMPH,Gust SpeedMPH,PrecipitationIn,Events,Conditions,WindDirDegrees,DateUTC
12:12 AM,82.4,69.8,66,29.66,10.0,SSW,11.5,18.4,N/A,Thunderstorm,Scattered Clouds,200,2013-06-13 04:12:00
12:17 AM,78.8,68.0,69,29.73,4.0,WNW,39.1,52.9,0.04,Rain-Thunderstorm,Light Rain,300,2013-06-13 04:17:00
12:20 AM,71.6,64.4,78,29.71,1.8,WNW,18.4,52.9,0.15,Rain-Thunderstorm,Heavy Thunderstorms and Rain,290,2013-06-13 04:20:00
12:29 AM,68.0,64.4,88,29.72,1.5,West,12.7,-,0.27,Rain-Thunderstorm,Thunderstorms and Rain,260,2013-06-13 04:29:00
12:32 AM,68.0,64.4,88,29.72,3.0,West,13.8,-,0.28,Rain-Thunderstorm,Light Thunderstorms and Rain,270,2013-06-13 04:32:00
12:42 AM,69.8,64.4,83,29.71,9.0,West,12.7,-,0.29,Rain-Thunderstorm,Light Thunderstorms and Rain,270,2013-06-13 04:42:00
12:53 AM,68.0,64.0,87,29.70,9.0,West,13.8,21.9,0.30,Rain-Thunderstorm,Light Thunderstorms and Rain,280,2013-06-13 04:53:00
1:46 AM,68.0,64.4,88,29.69,6.0,NW,4.6,-,0.15,Rain,Rain,320,2013-06-13 05:46:00
1:53 AM,68.0,64.0,87,29.67,5.0,Calm,Calm,-,0.17,Rain-Thunderstorm,Rain,0,2013-06-13 05:53:00
2:13 AM,68.0,64.4,88,29.65,2.5,SW,3.5,-,0.07,Rain-Thunderstorm,Thunderstorms and Rain,220,2013-06-13 06:13:00
2:22 AM,68.0,64.4,88,29.62,5.0,SSE,11.5,-,0.10,Rain-Thunderstorm,Light Thunderstorms and Rain,150,2013-06-13 06:22:00
7:53 AM,68.0,63.0,84,29.65,10.0,NW,10.4,-,N/A,,Overcast,310,2013-06-13 11:53:00
8:07 AM,68.0,62.6,83,29.68,10.0,NW,13.8,20.7,N/A,,Overcast,320,2013-06-13 12:07:00
8:39 AM,68.0,62.6,83,29.69,10.0,North,9.2,-,N/A,,Overcast,350,2013-06-13 12:39:00
8:53 AM,68.0,62.1,81,29.67,10.0,North,12.7,20.7,N/A,,Overcast,350,2013-06-13 12:53:00
9:31 AM,66.2,62.6,88,29.71,9.0,North,12.7,24.2,N/A,,Overcast,360,2013-06-13 13:31:00
9:42 AM,66.2,62.6,88,29.72,8.0,North,11.5,20.7,N/A,,Overcast,360,2013-06-13 13:42:00
9:53 AM,66.0,61.0,84,29.70,5.0,North,21.9,31.1,0.00,Rain,Light Rain,10,2013-06-13 13:53:00
10:11 AM,64.4,57.2,77,29.73,10.0,North,16.1,23.0,0.00,Rain,Light Rain,10,2013-06-13 14:11:00
10:43 AM,66.2,55.4,68,29.74,10.0,NNE,11.5,-,0.00,,Overcast,20,2013-06-13 14:43:00
10:53 AM,66.0,55.9,70,29.73,10.0,North,10.4,-,0.00,,Overcast,360,2013-06-13 14:53:00
11:53 AM,69.1,55.9,63,29.77,10.0,NNW,11.5,-,N/A,,Overcast,340,2013-06-13 15:53:00
12:53 PM,71.1,57.9,63,29.78,10.0,NNW,13.8,21.9,N/A,,Scattered Clouds,340,2013-06-13 16:53:00
1:53 PM,75.0,57.9,55,29.78,10.0,North,15.0,23.0,N/A,,Clear,350,2013-06-13 17:53:00
2:53 PM,75.9,55.0,48,29.79,10.0,NNW,11.5,25.3,N/A,,Scattered Clouds,340,2013-06-13 18:53:00
3:53 PM,77.0,55.0,47,29.81,10.0,NNW,10.4,-,N/A,,Scattered Clouds,340,2013-06-13 19:53:00
4:53 PM,78.1,54.0,43,29.82,10.0,NW,16.1,24.2,N/A,,Scattered Clouds,320,2013-06-13 20:53:00
5:53 PM,77.0,52.0,42,29.82,10.0,North,11.5,21.9,N/A,,Mostly Cloudy,350,2013-06-13 21:53:00
6:53 PM,75.9,52.0,43,29.83,10.0,NW,10.4,-,N/A,,Partly Cloudy,320,2013-06-13 22:53:00
7:53 PM,75.0,51.1,43,29.85,10.0,NNW,9.2,-,N/A,,Clear,330,2013-06-13 23:53:00
8:10 PM,73.4,51.8,47,29.86,10.0,NNW,6.9,-,N/A,,Partly Cloudy,330,2013-06-14 00:10:00
8:53 PM,73.0,54.0,51,29.86,10.0,NNW,6.9,-,N/A,,Mostly Cloudy,330,2013-06-14 00:53:00
9:53 PM,72.0,55.9,57,29.88,10.0,NNW,10.4,-,N/A,,Overcast,330,2013-06-14 01:53:00
10:53 PM,69.1,55.9,63,29.91,10.0,NW,10.4,-,N/A,,Overcast,310,2013-06-14 02:53:00
11:53 PM,68.0,55.0,63,29.92,10.0,WNW,10.4,-,N/A,,Overcast,300,2013-06-14 03:53:00